SCP
0 0 0 0 0 0 0 0 0 0 0 0 -0 -0 -0 -0 0 0 0 0 0 0 0 0 -0 -0 0 0 0 0 0 0 0 0 0 0 0 0 0 0 0 0 0
0 0 0 0 0 0 0 0 0 0 0 -0 0 0 0 -0 0 0 0 0 0 0 0 0 0 -0 -0 0 0 0 0 0 0 0 0 0 0 0 0 0 0 0 0
0 0 0 0 0 0 0 0 0 0 -0 -0 -0 -0 -0 -0 0 0 0 0 0 0 0 0 0 0 0 0 0 0 0 0 0 0 0 0 0 0 0 0 0 0 -0
0 0 0 0 0 0 0 0 0 0 0 -0 0 -0 -0 -0 -0 0 0 0 0 0 0 0 0 -0 0 -0 0 0 0 0 0 0 0 0 0 0 0 -0 0 0 0
0 0 -0 0 0 0 0 0 0 0 0 0 -0 0 -0 -0 0 0 0 0 -0 -0 0 -0 0 0 0 0 0 -0 -0 0 0 0 0 0 0 0 0 0 0 0 0
-0 -0 -0 -0 0 0 0 0 0 0 0 -0 -0 -0 -0 0 0 0 0 0 -0 -0 -0 0 0 0 0 -0 -0 -0 0 0 0 0 0 0 0 0 0 0 0 0 0
-0 -0 -0 -0 0 0 0 0 0 0 -0 -0 -0 -0 0 0 0 0 0 0 0 0 0 0 0 0 -0 0 -0 -0 0 0 0 0 0 0 0 0 0 0 0 0 0
-0 -0 -0 -0 -0 0 0 0 0 0 -0 -0 -0 -0 -0 0 0 0 0 -0 -0 -0 -0 -0 -0 0 0 0 0 0 0 0 0 0 0 -0 -0 0 0 0 0 0 0
-0 -0 -0 -0 -0 0 0 0 0 0 0 -0 -0 -0 -0 0 -0 0 0 0 -0 -0 -0 -0 -0 -0 -0 -0 -0 0 0 0 0 0 0 -0 -0 0 0 0 -0 -0 -0
0 -0 -0 -0 -0 -0 0 0 0 0 0 0 -0 -0 -0 0 -0 -0 0 0 -0 -0 -0 -0 -0 -0 -0 -0 -0 -0 0 -0 -0 -0 0 -0 0 -0 -0 0 -0 -0 -0
-0 -0 -0 -0 -0 -0 0 0 0 0 0 0 -0 -0 0 0 0 0 0 0 0 -0 -0 -0 0 0 -0 -0 0 0 0 0 0 -0 -0 0 0 0 0 0 0 0 -0
-0 -0 -0 -0 -0 0 0 0 0 0 0 0 0 -0 -0 -0 -0 0 -0 -0 -0 -0 -0 -0 -0 0 0 0 0 0 0 -0 -0 -0 0 -0 0 0 0 0 0 0 0
-0 -0 -0 -0 -0 0 0 0 0 0 0 0 0 0 0 0 0 0 0 -0 0 -0 -0 0 0 0 -0 0 -0 0 0 0 0 -0 -0 0 0 -0 -0 -0 0 0 -0
-0 -0 -0 -0 -0 0 0 0 0 0 0 0 0 0 0 0 0 0 0 -0 -0 -0 -0 0 -0 -0 0 0 0 0 0 0 0 0 -0 -0 -0 0 0 0 -0 -0 -0
-0 -0 -0 -0 -0 0 0 0 0 0 0 0 0 0 0 0 0 0 0 0 0 -0 0 0 0 0 0 -0 -0 0 0 0 0 -0 -0 -0 -0 -0 0 0 -0 -0 0
-0 -0 -0 -0 -0 0 0 0 -0 0 0 -0 0 0 0 0 0 0 0 -0 0 0 -0 0 0 0 -0 -0 -0 -0 -0 -0 -0 -0 -0 -0 0 0 0 0 0 0 0
-0 -0 -0 -0 -0 -0 0 -0 -0 0 -0 0 -0 -0 -0 0 -0 0 0 0 0 0 -0 -0 -0 0 -0 -0 -0 -0 -0 0 -0 0 0 0 0 -0 -0 -0 0 0 0
-0 -0 -0 -0 -0 0 -0 0 -0 -0 -0 0 -0 0 -0 -0 -0 -0 -0 0 -0 -0 -0 -0 -0 0 0 -0 -0 -0 -0 0 0 0 -0 -0 -0 -0 -0 0 0 0 0
0 0 0 0 0 0 0 -0 -0 -0 -0 -0 -0 -0 0 -0 -0 -0 -0 0 0 0 -0 -0 -0 0 -0 -0 0 -0 0 -0 -0 -0 -0 -0 -0 0 0 0 0 0 0
0 -0 0 0 0 0 0 0 0 -0 0 -0 -0 -0 -0 -0 -0 -0 -0 -0 -0 -0 -0 0 -0 -0 -0 -0 -0 -0 -0 -0 -0 -0 -0 -0 -0 -0 0 0 0 0 0
0 0 0 0 0 0 0 0 0 0 0 0 0 -0 -0 -0 -0 -0 -0 -0 -0 -0 -0 -0 0 0 -0 0 -0 -0 -0 -0 -0 -0 -0 0 0 0 0 0 0 0 0
0 0 0 0 0 0 0 0 0 0 0 0 0 0 -0 -0 -0 -0 -0 -0 -0 -0 -0 -0 -0 0 0 -0 0 0 0 -0 0 0 0 0 0 0 0 0 0 0 0
0 0 0 0 0 0 0 0 0 0 0 0 0 0 0 0 0 0 0 0 -0 -0 -0 0 0 0 0 0 0 0 0 0 0 0 0 0 0 0 0 0 0 0 0
0 0 0 0 0 0 0 0 0 0 0 0 0 0 0 0 0 0 0 0 0 0 0 0 0 0 0 0 0 0 0 0 0 0 0 0 0 0 0 0 0 0 0
0 0 0 0 0 0 0 0 0 0 0 0 0 0 0 0 0 0 0 0 0 0 0 0 0 0 0 0 0 0 0 0 0 0 0 0 0 0 0 0 0 0 0
0 0 0 0 0 0 0 0 0 0 0 0 0 0 0 0 0 0 0 0 0 0 0 0 0 0 0 0 0 0 0 0 0 0 0 0 0 0 0 0 0 0 0
Wind_Speed_500mb
26 24 19 16 10 6 7 7 5 9 11 8 15 20 21 14 9 3 5 11 7 2 7 9 13 15 16 18 20 32 31 40 37 40 37 35 34 47 65 59 63 89 82
23 26 17 12 5 6 9 10 8 14 16 22 18 15 17 13 6 6 9 4 2 4 5 10 13 13 14 24 29 32 30 32 31 49 44 43 45 67 56 63 93 87 72
32 25 19 7 6 15 9 7 8 17 23 21 15 17 17 17 14 10 8 4 5 12 15 16 14 17 26 24 27 26 26 26 32 51 52 55 64 67 86 81 77 72 72
37 30 19 6 3 12 13 12 13 19 25 22 18 15 13 14 11 9 10 10 13 17 18 15 16 20 28 26 17 14 21 32 44 53 57 58 74 79 86 84 84 78 70
41 26 17 11 9 11 14 14 15 17 25 24 22 18 16 12 12 9 10 17 14 10 12 13 13 14 18 19 18 18 20 28 46 53 67 81 85 90 96 98 93 78 62
43 25 23 16 13 6 6 17 18 16 25 25 27 18 16 11 7 8 10 11 12 12 11 17 15 11 11 11 12 7 9 33 60 80 82 89 89 96 103 97 85 71 55
39 32 26 19 17 11 7 18 19 17 25 26 24 20 18 13 12 12 18 17 15 15 11 12 9 15 15 16 18 18 29 46 69 86 92 94 93 93 87 71 62 53 46
40 29 29 25 22 18 6 9 21 18 22 26 25 19 15 18 20 13 16 20 24 21 16 10 8 17 15 17 28 33 48 53 62 70 61 77 83 81 57 51 44 37 38
40 37 31 25 25 21 10 14 23 21 24 25 21 17 19 25 23 18 20 23 21 18 13 12 14 13 17 19 33 45 58 59 59 65 59 57 56 51 42 48 50 50 57
42 39 30 28 29 24 11 15 21 19 26 26 20 21 23 28 25 16 14 14 17 19 16 14 17 25 20 26 36 48 63 73 59 56 57 52 44 45 47 47 49 54 52
44 38 36 32 34 21 12 16 17 22 27 24 22 27 26 22 20 16 11 17 18 20 20 27 29 27 29 41 37 46 61 72 56 51 56 53 48 49 49 39 32 22 32
47 42 41 41 34 23 12 18 14 22 32 27 28 27 23 20 20 14 16 16 24 23 27 36 31 29 37 34 40 40 54 61 61 54 57 60 50 52 44 40 36 18 17
52 51 43 43 30 23 18 24 15 20 37 38 34 28 25 22 20 26 23 25 34 32 37 36 35 38 36 39 36 42 49 53 54 56 47 54 47 44 43 42 34 23 19
57 54 49 42 32 27 21 28 22 26 38 37 34 29 28 27 29 31 25 42 46 40 39 42 37 37 33 41 41 50 52 52 55 58 56 55 38 39 43 40 34 31 28
61 58 55 46 38 34 27 34 24 21 16 23 27 27 32 33 37 35 42 47 41 42 41 46 43 46 48 46 45 42 44 46 51 51 51 46 39 37 37 38 35 35 38
65 64 61 52 44 39 34 43 37 25 22 17 11 12 20 26 37 38 39 40 39 44 43 43 41 43 46 48 47 44 38 41 44 42 40 39 41 40 38 39 40 39 40
69 69 64 54 52 49 41 43 47 40 29 30 24 18 12 34 41 42 42 43 38 39 39 38 37 39 47 48 48 41 40 37 36 37 39 39 39 39 40 42 43 41 42
72 70 66 61 58 53 50 49 47 44 41 35 43 33 23 23 40 45 48 46 43 40 41 40 35 33 38 47 51 46 41 41 43 42 46 42 41 41 44 47 47 48 46
74 74 67 61 53 65 56 51 51 51 47 44 43 42 39 34 30 36 49 50 50 49 51 48 45 41 38 34 37 41 43 45 54 57 52 53 53 51 52 52 51 49 46
76 74 70 63 60 57 64 61 55 52 52 57 54 54 51 48 54 55 54 60 58 54 51 53 51 53 52 49 47 42 42 43 44 47 49 50 50 51 53 52 50 50 52
81 78 73 65 68 60 63 66 62 61 58 58 50 52 62 64 62 61 60 62 67 67 61 60 57 58 62 54 58 59 54 56 59 59 60 60 57 55 56 58 57 58 59
84 79 74 72 64 72 66 65 65 62 63 61 60 52 44 47 61 66 65 64 63 65 64 62 63 64 65 60 44 62 62 59 61 64 63 64 65 66 63 62 62 63 62
84 85 79 71 75 67 66 66 68 68 67 65 61 61 56 56 52 51 57 65 66 67 68 69 66 64 66 72 67 56 58 63 62 62 65 68 68 68 65 65 63 64 65
74 85 83 80 71 79 70 69 71 71 70 70 66 66 64 61 59 55 50 47 48 55 65 73 78 75 68 64 60 64 70 68 66 65 67 68 69 69 69 70 69 68 64
13 65 78 75 75 69 80 71 74 75 73 73 73 76 73 69 68 65 61 58 54 52 50 55 66 73 80 82 77 71 70 68 66 66 71 71 70 69 67 69 70 71 71
17 16 33 69 71 71 67 79 76 71 80 79 77 77 77 77 76 73 70 69 67 63 58 52 53 56 54 53 52 65 78 74 68 64 65 68 73 74 70 66 63 66 73
Wind_Direction_500mb
181 170 169 197 209 206 184 177 168 182 156 146 127 139 138 177 198 206 182 194 192 228 231 212 228 213 190 208 202 187 182 176 176 143 141 144 156 147 154 160 163 168 164
177 158 184 184 247 188 153 173 167 158 147 133 134 142 149 169 190 168 168 236 18 3 112 97 108 136 168 173 177 183 176 176 175 154 149 147 156 158 158 173 165 159 156
170 165 167 173 178 168 158 161 157 160 150 139 153 168 173 171 168 197 177 151 129 113 103 94 87 113 144 146 151 163 156 154 169 160 153 158 159 160 158 154 159 156 150
176 173 165 157 113 160 160 151 133 161 160 147 148 125 147 156 151 135 138 126 114 125 123 118 111 120 142 147 155 145 159 156 163 165 157 164 156 163 166 149 147 146 152
181 176 168 154 136 121 155 158 141 151 156 159 145 152 156 156 148 150 153 133 127 130 120 129 158 124 164 170 189 176 185 176 166 166 164 157 153 150 150 152 150 158 157
188 184 167 154 148 103 110 161 160 152 163 157 160 170 167 174 169 190 168 154 141 140 109 125 138 151 172 172 161 157 172 176 166 162 161 149 147 151 154 153 152 153 150
185 179 167 166 163 180 141 157 163 151 157 152 175 182 174 193 181 162 141 128 118 119 115 114 108 125 135 140 126 129 163 166 168 163 157 162 152 156 148 150 157 165 161
180 179 171 168 172 182 190 177 167 163 160 166 169 169 179 175 167 163 138 127 127 131 146 136 122 133 140 143 131 136 153 157 165 165 158 155 151 150 154 154 157 165 170
191 186 178 177 175 186 179 160 162 163 169 175 166 177 168 164 161 148 137 136 141 147 156 150 161 153 148 152 138 151 156 156 159 155 142 143 152 153 154 159 165 165 160
187 184 178 184 178 183 187 155 158 160 170 168 162 154 153 152 150 150 169 170 163 161 154 166 176 165 158 160 150 154 159 157 152 148 153 151 152 156 158 161 159 165 165
186 181 187 192 183 191 183 152 156 163 159 177 168 151 153 150 145 145 150 134 143 133 123 123 124 139 161 161 161 160 164 164 161 152 160 156 154 160 164 160 155 167 171
186 180 188 187 184 184 186 161 160 168 163 171 167 159 163 153 151 157 156 144 143 128 122 124 115 128 137 141 153 164 162 163 167 162 165 160 162 162 165 162 156 156 184
184 185 188 188 187 197 191 168 160 171 170 170 171 164 160 155 143 144 149 151 142 134 123 119 120 127 130 134 145 151 162 169 174 175 176 172 165 159 164 172 185 201 207
185 187 186 191 189 190 187 171 165 152 164 168 174 178 173 153 154 145 145 152 146 142 132 127 124 131 128 134 136 146 154 166 174 179 176 170 162 173 186 196 203 208 222
190 189 189 192 197 190 191 176 179 168 144 156 171 183 179 168 160 146 140 145 147 149 147 142 137 137 134 134 135 145 157 162 168 164 170 180 189 194 204 208 213 226 234
194 192 196 198 195 193 183 180 192 200 210 210 167 136 179 180 167 161 153 154 155 157 159 158 155 157 151 147 144 146 156 169 175 182 187 198 203 209 215 220 226 237 249
201 198 198 201 197 195 192 190 194 199 196 202 205 181 169 182 180 174 170 165 163 170 174 169 169 172 174 167 162 167 181 181 182 189 199 207 212 220 226 233 239 247 246
208 207 204 203 201 199 203 205 202 204 199 190 202 197 187 169 185 186 181 178 177 185 187 186 183 181 187 187 184 186 186 198 206 211 215 223 229 237 242 245 243 244 250
208 207 209 209 206 200 206 210 214 215 215 212 202 199 196 196 195 194 201 203 198 197 194 195 196 205 212 208 207 210 214 212 215 217 219 227 237 240 244 246 247 250 251
209 211 210 207 206 208 207 210 216 219 220 223 220 217 208 201 203 204 207 212 214 215 210 204 201 203 210 224 225 223 225 226 226 228 232 237 242 245 248 251 253 257 260
210 212 212 211 211 213 210 214 213 220 224 226 227 228 227 225 222 218 218 219 219 221 222 219 214 212 209 215 230 229 230 231 235 238 240 243 248 250 255 259 259 257 256
213 213 212 213 212 217 218 218 219 218 226 231 233 233 231 231 232 232 230 230 230 230 230 228 227 223 219 221 232 232 236 234 234 239 244 248 250 252 254 252 253 253 250
217 213 214 214 213 215 221 223 222 221 222 231 234 237 230 231 233 234 237 239 238 236 234 234 234 232 230 230 227 230 237 241 242 243 247 247 251 252 253 254 254 251 249
210 218 213 216 215 213 217 225 224 224 224 224 231 240 240 238 238 240 241 241 240 240 242 240 239 240 238 235 232 233 238 242 245 248 248 249 253 256 257 256 256 256 256
183 212 216 217 218 220 217 222 230 228 226 227 225 234 240 242 241 242 245 245 247 246 246 243 239 240 242 240 238 238 241 247 249 250 250 249 250 252 256 257 257 255 253
312 187 209 227 228 224 227 227 229 235 232 230 229 231 236 241 244 245 246 246 247 249 250 251 244 237 235 237 240 240 240 240 241 246 250 252 252 252 254 257 256 253 252
Wind_Speed_850mb
26 24 19 16 10 6 7 7 5 9 11 8 15 20 21 14 9 3 5 11 7 2 7 9 13 15 16 18 20 32 31 40 37 40 37 35 34 47 65 59 63 89 82
23 26 17 12 5 6 9 10 8 14 16 22 18 15 17 13 6 6 9 4 2 4 5 10 13 13 14 24 29 32 30 32 31 49 44 43 45 67 56 63 93 87 72
32 25 19 7 6 15 9 7 8 17 23 21 15 17 17 17 14 10 8 4 5 12 15 16 14 17 26 24 27 26 26 26 32 51 52 55 64 67 86 81 77 72 72
37 30 19 6 3 12 13 12 13 19 25 22 18 15 13 14 11 9 10 10 13 17 18 15 16 20 28 26 17 14 21 32 44 53 57 58 74 79 86 84 84 78 70
41 26 17 11 9 11 14 14 15 17 25 24 22 18 16 12 12 9 10 17 14 10 12 13 13 14 18 19 18 18 20 28 46 53 67 81 85 90 96 98 93 78 62
43 25 23 16 13 6 6 17 18 16 25 25 27 18 16 11 7 8 10 11 12 12 11 17 15 11 11 11 12 7 9 33 60 80 82 89 89 96 103 97 85 71 55
39 32 26 19 17 11 7 18 19 17 25 26 24 20 18 13 12 12 18 17 15 15 11 12 9 15 15 16 18 18 29 46 69 86 92 94 93 93 87 71 62 53 46
40 29 29 25 22 18 6 9 21 18 22 26 25 19 15 18 20 13 16 20 24 21 16 10 8 17 15 17 28 33 48 53 62 70 61 77 83 81 57 51 44 37 38
40 37 31 25 25 21 10 14 23 21 24 25 21 17 19 25 23 18 20 23 21 18 13 12 14 13 17 19 33 45 58 59 59 65 59 57 56 51 42 48 50 50 57
42 39 30 28 29 24 11 15 21 19 26 26 20 21 23 28 25 16 14 14 17 19 16 14 17 25 20 26 36 48 63 73 59 56 57 52 44 45 47 47 49 54 52
44 38 36 32 34 21 12 16 17 22 27 24 22 27 26 22 20 16 11 17 18 20 20 27 29 27 29 41 37 46 61 72 56 51 56 53 48 49 49 39 32 22 32
47 42 41 41 34 23 12 18 14 22 32 27 28 27 23 20 20 14 16 16 24 23 27 36 31 29 37 34 40 40 54 61 61 54 57 60 50 52 44 40 36 18 17
52 51 43 43 30 23 18 24 15 20 37 38 34 28 25 22 20 26 23 25 34 32 37 36 35 38 36 39 36 42 49 53 54 56 47 54 47 44 43 42 34 23 19
57 54 49 42 32 27 21 28 22 26 38 37 34 29 28 27 29 31 25 42 46 40 39 42 37 37 33 41 41 50 52 52 55 58 56 55 38 39 43 40 34 31 28
61 58 55 46 38 34 27 34 24 21 16 23 27 27 32 33 37 35 42 47 41 42 41 46 43 46 48 46 45 42 44 46 51 51 51 46 39 37 37 38 35 35 38
65 64 61 52 44 39 34 43 37 25 22 17 11 12 20 26 37 38 39 40 39 44 43 43 41 43 46 48 47 44 38 41 44 42 40 39 41 40 38 39 40 39 40
69 69 64 54 52 49 41 43 47 40 29 30 24 18 12 34 41 42 42 43 38 39 39 38 37 39 47 48 48 41 40 37 36 37 39 39 39 39 40 42 43 41 42
72 70 66 61 58 53 50 49 47 44 41 35 43 33 23 23 40 45 48 46 43 40 41 40 35 33 38 47 51 46 41 41 43 42 46 42 41 41 44 47 47 48 46
74 74 67 61 53 65 56 51 51 51 47 44 43 42 39 34 30 36 49 50 50 49 51 48 45 41 38 34 37 41 43 45 54 57 52 53 53 51 52 52 51 49 46
76 74 70 63 60 57 64 61 55 52 52 57 54 54 51 48 54 55 54 60 58 54 51 53 51 53 52 49 47 42 42 43 44 47 49 50 50 51 53 52 50 50 52
81 78 73 65 68 60 63 66 62 61 58 58 50 52 62 64 62 61 60 62 67 67 61 60 57 58 62 54 58 59 54 56 59 59 60 60 57 55 56 58 57 58 59
84 79 74 72 64 72 66 65 65 62 63 61 60 52 44 47 61 66 65 64 63 65 64 62 63 64 65 60 44 62 62 59 61 64 63 64 65 66 63 62 62 63 62
84 85 79 71 75 67 66 66 68 68 67 65 61 61 56 56 52 51 57 65 66 67 68 69 66 64 66 72 67 56 58 63 62 62 65 68 68 68 65 65 63 64 65
74 85 83 80 71 79 70 69 71 71 70 70 66 66 64 61 59 55 50 47 48 55 65 73 78 75 68 64 60 64 70 68 66 65 67 68 69 69 69 70 69 68 64
13 65 78 75 75 69 80 71 74 75 73 73 73 76 73 69 68 65 61 58 54 52 50 55 66 73 80 82 77 71 70 68 66 66 71 71 70 69 67 69 70 71 71
17 16 33 69 71 71 67 79 76 71 80 79 77 77 77 77 76 73 70 69 67 63 58 52 53 56 54 53 52 65 78 74 68 64 65 68 73 74 70 66 63 66 73
Wind_Direction_850mb
181 170 169 197 209 206 184 177 168 182 156 146 127 139 138 177 198 206 182 194 192 228 231 212 228 213 190 208 202 187 182 176 176 143 141 144 156 147 154 160 163 168 164
177 158 184 184 247 188 153 173 167 158 147 133 134 142 149 169 190 168 168 236 18 3 112 97 108 136 168 173 177 183 176 176 175 154 149 147 156 158 158 173 165 159 156
170 165 167 173 178 168 158 161 157 160 150 139 153 168 173 171 168 197 177 151 129 113 103 94 87 113 144 146 151 163 156 154 169 160 153 158 159 160 158 154 159 156 150
176 173 165 157 113 160 160 151 133 161 160 147 148 125 147 156 151 135 138 126 114 125 123 118 111 120 142 147 155 145 159 156 163 165 157 164 156 163 166 149 147 146 152
181 176 168 154 136 121 155 158 141 151 156 159 145 152 156 156 148 150 153 133 127 130 120 129 158 124 164 170 189 176 185 176 166 166 164 157 153 150 150 152 150 158 157
188 184 167 154 148 103 110 161 160 152 163 157 160 170 167 174 169 190 168 154 141 140 109 125 138 151 172 172 161 157 172 176 166 162 161 149 147 151 154 153 152 153 150
185 179 167 166 163 180 141 157 163 151 157 152 175 182 174 193 181 162 141 128 118 119 115 114 108 125 135 140 126 129 163 166 168 163 157 162 152 156 148 150 157 165 161
180 179 171 168 172 182 190 177 167 163 160 166 169 169 179 175 167 163 138 127 127 131 146 136 122 133 140 143 131 136 153 157 165 165 158 155 151 150 154 154 157 165 170
191 186 178 177 175 186 179 160 162 163 169 175 166 177 168 164 161 148 137 136 141 147 156 150 161 153 148 152 138 151 156 156 159 155 142 143 152 153 154 159 165 165 160
187 184 178 184 178 183 187 155 158 160 170 168 162 154 153 152 150 150 169 170 163 161 154 166 176 165 158 160 150 154 159 157 152 148 153 151 152 156 158 161 159 165 165
186 181 187 192 183 191 183 152 156 163 159 177 168 151 153 150 145 145 150 134 143 133 123 123 124 139 161 161 161 160 164 164 161 152 160 156 154 160 164 160 155 167 171
186 180 188 187 184 184 186 161 160 168 163 171 167 159 163 153 151 157 156 144 143 128 122 124 115 128 137 141 153 164 162 163 167 162 165 160 162 162 165 162 156 156 184
184 185 188 188 187 197 191 168 160 171 170 170 171 164 160 155 143 144 149 151 142 134 123 119 120 127 130 134 145 151 162 169 174 175 176 172 165 159 164 172 185 201 207
185 187 186 191 189 190 187 171 165 152 164 168 174 178 173 153 154 145 145 152 146 142 132 127 124 131 128 134 136 146 154 166 174 179 176 170 162 173 186 196 203 208 222
190 189 189 192 197 190 191 176 179 168 144 156 171 183 179 168 160 146 140 145 147 149 147 142 137 137 134 134 135 145 157 162 168 164 170 180 189 194 204 208 213 226 234
194 192 196 198 195 193 183 180 192 200 210 210 167 136 179 180 167 161 153 154 155 157 159 158 155 157 151 147 144 146 156 169 175 182 187 198 203 209 215 220 226 237 249
201 198 198 201 197 195 192 190 194 199 196 202 205 181 169 182 180 174 170 165 163 170 174 169 169 172 174 167 162 167 181 181 182 189 199 207 212 220 226 233 239 247 246
208 207 204 203 201 199 203 205 202 204 199 190 202 197 187 169 185 186 181 178 177 185 187 186 183 181 187 187 184 186 186 198 206 211 215 223 229 237 242 245 243 244 250
208 207 209 209 206 200 206 210 214 215 215 212 202 199 196 196 195 194 201 203 198 197 194 195 196 205 212 208 207 210 214 212 215 217 219 227 237 240 244 246 247 250 251
209 211 210 207 206 208 207 210 216 219 220 223 220 217 208 201 203 204 207 212 214 215 210 204 201 203 210 224 225 223 225 226 226 228 232 237 242 245 248 251 253 257 260
210 212 212 211 211 213 210 214 213 220 224 226 227 228 227 225 222 218 218 219 219 221 222 219 214 212 209 215 230 229 230 231 235 238 240 243 248 250 255 259 259 257 256
213 213 212 213 212 217 218 218 219 218 226 231 233 233 231 231 232 232 230 230 230 230 230 228 227 223 219 221 232 232 236 234 234 239 244 248 250 252 254 252 253 253 250
217 213 214 214 213 215 221 223 222 221 222 231 234 237 230 231 233 234 237 239 238 236 234 234 234 232 230 230 227 230 237 241 242 243 247 247 251 252 253 254 254 251 249
210 218 213 216 215 213 217 225 224 224 224 224 231 240 240 238 238 240 241 241 240 240 242 240 239 240 238 235 232 233 238 242 245 248 248 249 253 256 257 256 256 256 256
183 212 216 217 218 220 217 222 230 228 226 227 225 234 240 242 241 242 245 245 247 246 246 243 239 240 242 240 238 238 241 247 249 250 250 249 250 252 256 257 257 255 253
312 187 209 227 228 224 227 227 229 235 232 230 229 231 236 241 244 245 246 246 247 249 250 251 244 237 235 237 240 240 240 240 241 246 250 252 252 252 254 257 256 253 252